Tracking 29892 objects as of 21-Nov-2024
HD Live streaming from Space Station
objects crossing your sky now

STARLINK-5983

Track STARLINK-5983 now!
10-day predictions
STARLINK-5983 is classified as:


NORAD ID: 57224
Int'l Code: 2023-094G
Perigee: 565.2 km
Apogee: 567.2 km
Inclination: 43.0 °
Period: 95.8 minutes
Semi major axis: 6937 km
RCS: Unknown
Launch date: July 7, 2023
Source: United States (US)
Launch site: AIR FORCE WESTERN TEST RANGE (AFWTR)
Your satellite tracking list
Your tracking list is empty




NASA's NSSDC Master Catalog

Two Line Element Set (TLE):
1 57224U 23094G   24325.74241665 -.00000316  00000-0 -83238-5 0  9990
2 57224  43.0035  85.8299 0001438 265.9090  94.1588 15.02532419 75824
Source of the keplerian elements: AFSPC